This demonstration page uses our WeatherBlox Daily Observations layout. Learn more.

39.92423, -83.80882

Hourly Observations for August 13, 2018

Temp ( °F °C ) Dew Point ( °F °C ) Humidity (%) Winds ( mph kmh ) Pressure ( in mb ) Visibility ( mi km ) Precip ( " mm )
12:56 am 00:56 Cloudy 66 18.9 65 18.3 96 96 Calm 30.11 1020 10 16.0934 0 0
1:56 am 01:56 Clear 65 18.3 64 17.8 97 97 Calm 30.09 1019 10 16.0934 0 0
2:56 am 02:56 Clear 63 17.2 63 17.2 100 100 Calm 30.09 1019 10 16.0934 0 0
3:56 am 03:56 Clear 61 16.1 61 16.1 100 100 Calm 30.08 1019 10 16.0934 0 0
4:56 am 04:56 Clear 62 16.7 62 16.7 100 100 N 3 6 30.09 1019 10 16.0934 0 0
5:56 am 05:56 Clear 62 16.7 62 16.7 100 100 Calm 30.09 1019 10 16.0934 0 0
6:56 am 06:56 Sunny with Mist and Fog 61 16.1 61 16.1 100 100 NNW 5 7 30.1 1019 6 9.65604 0 0
7:56 am 07:56 Sunny 64 17.8 63 17.2 96 96 Calm 30.1 1019 10 16.0934 0 0
8:56 am 08:56 Sunny 69 20.6 66 18.9 90 90 ENE 5 7 30.11 1020 10 16.0934 0 0
9:56 am 09:56 Sunny 73 22.8 65 18.3 76 76 N 5 7 30.11 1020 10 16.0934 0 0
10:56 am 10:56 Sunny 75 23.9 65 18.3 71 71 VRB 5 7 30.11 1020 10 16.0934 0 0
11:56 am 11:56 Mostly Sunny 77 25 63 17.2 62 62 NNW 7 11 30.1 1019 10 16.0934 0 0
12:56 pm 12:56 Mostly Sunny 79 26.1 63 17.2 58 58 NNW 6 9 30.09 1019 10 16.0934 0 0
1:56 pm 13:56 Mostly Cloudy 80 26.7 64 17.8 58 58 VRB 3 6 30.07 1018 10 16.0934 0 0
2:56 pm 14:56 Cloudy 78 25.6 65 18.3 64 64 VRB 3 6 30.06 1018 10 16.0934 0 0
3:56 pm 15:56 Cloudy 82 27.8 66 18.9 58 58 VRB 7 11 30.04 1017 10 16.0934 0 0
4:56 pm 16:56 Partly Cloudy 82 27.8 66 18.9 58 58 W 9 15 30.02 1017 10 16.0934 0 0
5:56 pm 17:56 Partly Cloudy 81 27.2 65 18.3 58 58 WNW 8 13 30.01 1016 10 16.0934 0 0
6:56 pm 18:56 Mostly Sunny 78 25.6 65 18.3 64 64 NNW 7 11 30.01 1016 10 16.0934 0 0
7:56 pm 19:56 Mostly Sunny 77 25 66 18.9 69 69 NNW 5 7 30.01 1016 10 16.0934 0 0
8:56 pm 20:56 Clear 71 21.7 66 18.9 84 84 Calm 30.02 1017 10 16.0934 0 0
9:56 pm 21:56 Clear 68 20 66 18.9 93 93 Calm 30.03 1017 10 16.0934 0 0
10:56 pm 22:56 Clear 66 18.9 65 18.3 96 96 Calm 30.03 1017 10 16.0934 0 0
11:56 pm 23:56 Clear 65 18.3 65 18.3 100 100 Calm 30.04 1017 10 16.0934 0 0

Powered by AerisWeather